When you browse on this site, cookies collect data to enhance your experience and personalize the content and advertising you see.
Visit our Privacy Policy to learn more. By continuing to use the site, you agree to this use of cookies and data.
  • Em Portugal
  • Lista de países
  • Para 7 dias
  • Temperatura da água
  • Mapas de satélite
  • Mapa do tempo
  • Widgets de tempo
  • user-avatar
    Iniciar Sessão

    Previsão horária em Zhuravichi

    Hoje, 20 Abril, Sábado

    Tempo Temperatura Precipitação Vento Pressão Humidade
    00:00 +7°C° 0 mm 1 m/s 757 mmHg 55%
    01:00 +7°C° 0 mm 1 m/s 757 mmHg 56%
    02:00 +6°C° 0 mm 1 m/s 756 mmHg 57%
    03:00 +6°C° 0 mm 1 m/s 756 mmHg 59%
    04:00 +6°C° 0 mm 1 m/s 756 mmHg 60%
    05:00 +5°C° 0 mm 1 m/s 756 mmHg 61%
    06:00 +6°C° 0 mm 2 m/s 755 mmHg 57%
    07:00 +8°C° 0 mm 2 m/s 755 mmHg 54%
    08:00 +9°C° 0 mm 2 m/s 755 mmHg 50%
    09:00 +11°C° 0 mm 3 m/s 755 mmHg 47%
    10:00 +12°C° 0 mm 3 m/s 755 mmHg 44%
    11:00 +14°C° 0 mm 3 m/s 755 mmHg 40%
    12:00 +14°C° 0 mm 3 m/s 754 mmHg 38%
    13:00 +16°C° 0 mm 3 m/s 754 mmHg 36%
    14:00 +16°C° 0 mm 3 m/s 754 mmHg 34%
    15:00 +16°C° 0 mm 2 m/s 753 mmHg 38%
    16:00 +15°C° 0 mm 1 m/s 753 mmHg 42%
    17:00 +15°C° 0 mm 1 m/s 753 mmHg 46%
    18:00 +13°C° 0 mm 1 m/s 753 mmHg 51%
    19:00 +12°C° 0 mm 1 m/s 753 mmHg 56%
    20:00 +11°C° 0 mm 1 m/s 753 mmHg 61%
    21:00 +10°C° 0.4 mm 1 m/s 753 mmHg 67%
    22:00 +10°C° 0.4 mm 1 m/s 753 mmHg 72%
    23:00 +9°C° 0.4 mm 1 m/s 753 mmHg 78%

    Amanhã, 21 Abril, Domingo

    Tempo Temperatura Precipitação Vento Pressão Humidade
    00:00 +9°C° 0.3 mm 1 m/s 753 mmHg 79%
    01:00 +9°C° 0.3 mm 1 m/s 753 mmHg 80%
    02:00 +9°C° 0.3 mm 1 m/s 752 mmHg 81%
    03:00 +7°C° 0.1 mm 2 m/s 752 mmHg 81%
    04:00 +7°C° 0.1 mm 2 m/s 752 mmHg 81%
    05:00 +7°C° 0.1 mm 2 m/s 752 mmHg 81%
    06:00 +8°C° 0.3 mm 2 m/s 752 mmHg 78%
    07:00 +9°C° 0.3 mm 3 m/s 752 mmHg 75%
    08:00 +10°C° 0.3 mm 3 m/s 752 mmHg 72%
    09:00 +11°C° 0.3 mm 4 m/s 753 mmHg 64%
    10:00 +13°C° 0.3 mm 5 m/s 753 mmHg 56%
    11:00 +14°C° 0.3 mm 6 m/s 753 mmHg 47%
    12:00 +14°C° 0 mm 6 m/s 753 mmHg 44%
    13:00 +15°C° 0 mm 6 m/s 753 mmHg 41%
    14:00 +15°C° 0 mm 6 m/s 753 mmHg 37%
    15:00 +15°C° 0 mm 6 m/s 753 mmHg 39%
    16:00 +14°C° 0 mm 6 m/s 753 mmHg 41%
    17:00 +14°C° 0 mm 6 m/s 753 mmHg 43%
    18:00 +12°C° 0 mm 5 m/s 753 mmHg 48%
    19:00 +11°C° 0 mm 4 m/s 754 mmHg 52%
    20:00 +9°C° 0 mm 3 m/s 754 mmHg 57%
    21:00 +8°C° 0 mm 3 m/s 754 mmHg 58%
    22:00 +8°C° 0 mm 3 m/s 755 mmHg 60%
    23:00 +7°C° 0 mm 3 m/s 755 mmHg 61%

    Depois de amanhã, 22 Abril, Segunda-feira

    Tempo Temperatura Precipitação Vento Pressão Humidade
    00:00 +7°C° 0 mm 3 m/s 756 mmHg 62%
    01:00 +7°C° 0 mm 3 m/s 756 mmHg 62%
    02:00 +6°C° 0 mm 2 m/s 756 mmHg 63%
    03:00 +6°C° 0 mm 2 m/s 756 mmHg 64%
    04:00 +6°C° 0 mm 2 m/s 756 mmHg 65%
    05:00 +6°C° 0 mm 2 m/s 757 mmHg 65%
    06:00 +8°C° 0 mm 2 m/s 757 mmHg 62%
    07:00 +9°C° 0 mm 2 m/s 757 mmHg 59%
    08:00 +10°C° 0 mm 2 m/s 758 mmHg 56%
    09:00 +12°C° 0 mm 3 m/s 758 mmHg 50%
    10:00 +13°C° 0 mm 3 m/s 758 mmHg 43%
    11:00 +14°C° 0 mm 3 m/s 758 mmHg 37%
    12:00 +14°C° 0 mm 3 m/s 758 mmHg 37%
    13:00 +14°C° 0 mm 3 m/s 758 mmHg 37%
    14:00 +14°C° 0 mm 3 m/s 758 mmHg 37%
    15:00 +14°C° 0 mm 3 m/s 758 mmHg 38%
    16:00 +14°C° 0 mm 3 m/s 758 mmHg 38%
    17:00 +14°C° 0 mm 3 m/s 758 mmHg 39%
    18:00 +13°C° 0 mm 2 m/s 758 mmHg 44%
    19:00 +12°C° 0 mm 2 m/s 758 mmHg 48%
    20:00 +10°C° 0 mm 1 m/s 758 mmHg 53%
    21:00 +9°C° 0 mm 1 m/s 758 mmHg 54%
    22:00 +9°C° 0 mm 1 m/s 758 mmHg 55%
    23:00 +9°C° 0 mm 1 m/s 759 mmHg 56%

    23 Abril, Terça-feira

    Tempo Temperatura Precipitação Vento Pressão Humidade
    00:00 +9°C° 0 mm 1 m/s 759 mmHg 55%
    01:00 +9°C° 0 mm 1 m/s 759 mmHg 54%
    02:00 +10°C° 0 mm 1 m/s 759 mmHg 53%
    03:00 +9°C° 0 mm 1 m/s 759 mmHg 56%
    04:00 +8°C° 0 mm 1 m/s 759 mmHg 58%
    05:00 +8°C° 0 mm 1 m/s 759 mmHg 61%
    06:00 +9°C° 0 mm 1 m/s 760 mmHg 57%
    07:00 +11°C° 0 mm 1 m/s 760 mmHg 54%
    08:00 +13°C° 0 mm 2 m/s 760 mmHg 50%
    09:00 +14°C° 0 mm 2 m/s 760 mmHg 45%
    10:00 +14°C° 0 mm 3 m/s 760 mmHg 40%
    11:00 +17°C° 0 mm 3 m/s 760 mmHg 35%
    12:00 +17°C° 0 mm 3 m/s 760 mmHg 35%
    13:00 +17°C° 0 mm 3 m/s 759 mmHg 35%
    14:00 +17°C° 0 mm 3 m/s 759 mmHg 34%
    15:00 +17°C° 0 mm 3 m/s 759 mmHg 36%
    16:00 +17°C° 0 mm 3 m/s 759 mmHg 38%
    17:00 +16°C° 0 mm 3 m/s 758 mmHg 39%
    18:00 +14°C° 0 mm 3 m/s 759 mmHg 43%
    19:00 +13°C° 0 mm 3 m/s 759 mmHg 47%
    20:00 +13°C° 0 mm 2 m/s 759 mmHg 50%
    21:00 +12°C° 0 mm 2 m/s 759 mmHg 54%
    22:00 +10°C° 0 mm 2 m/s 759 mmHg 57%
    23:00 +9°C° 0 mm 2 m/s 759 mmHg 61%

    24 Abril, Quarta-feira

    Tempo Temperatura Precipitação Vento Pressão Humidade
    00:00 +8°C° 0 mm 2 m/s 759 mmHg 62%
    01:00 +8°C° 0 mm 2 m/s 759 mmHg 64%
    02:00 +7°C° 0 mm 2 m/s 759 mmHg 66%
    03:00 +7°C° 0 mm 2 m/s 759 mmHg 67%
    04:00 +7°C° 0 mm 2 m/s 759 mmHg 68%
    05:00 +6°C° 0 mm 2 m/s 759 mmHg 70%
    06:00 +8°C° 0 mm 2 m/s 760 mmHg 65%
    07:00 +10°C° 0 mm 3 m/s 760 mmHg 60%
    08:00 +12°C° 0 mm 3 m/s 760 mmHg 56%
    09:00 +13°C° 0 mm 4 m/s 760 mmHg 51%
    10:00 +15°C° 0 mm 4 m/s 759 mmHg 46%
    11:00 +16°C° 0 mm 5 m/s 759 mmHg 41%
    12:00 +17°C° 0 mm 5 m/s 759 mmHg 41%
    13:00 +17°C° 0 mm 5 m/s 759 mmHg 41%
    14:00 +17°C° 0 mm 5 m/s 758 mmHg 40%
    15:00 +17°C° 0 mm 5 m/s 758 mmHg 42%
    16:00 +17°C° 0 mm 5 m/s 758 mmHg 43%
    17:00 +18°C° 0 mm 4 m/s 757 mmHg 44%
    18:00 +15°C° 0 mm 4 m/s 757 mmHg 50%
    19:00 +13°C° 0 mm 3 m/s 757 mmHg 56%
    20:00 +11°C° 0 mm 3 m/s 757 mmHg 61%
    21:00 +11°C° 0 mm 3 m/s 757 mmHg 63%
    22:00 +10°C° 0 mm 3 m/s 758 mmHg 65%
    23:00 +10°C° 0 mm 3 m/s 758 mmHg 66%

    25 Abril, Quinta-feira

    Tempo Temperatura Precipitação Vento Pressão Humidade
    00:00 +9°C° 0 mm 3 m/s 758 mmHg 68%
    01:00 +9°C° 0 mm 3 m/s 758 mmHg 69%
    02:00 +8°C° 0 mm 3 m/s 758 mmHg 70%
    03:00 +8°C° 0 mm 3 m/s 758 mmHg 71%
    04:00 +8°C° 0 mm 3 m/s 758 mmHg 72%
    05:00 +7°C° 0 mm 3 m/s 758 mmHg 73%
    06:00 +9°C° 0 mm 3 m/s 758 mmHg 68%
    07:00 +11°C° 0 mm 4 m/s 758 mmHg 62%
    08:00 +13°C° 0 mm 4 m/s 758 mmHg 57%
    09:00 +14°C° 0 mm 5 m/s 757 mmHg 52%
    10:00 +16°C° 0 mm 5 m/s 757 mmHg 47%
    11:00 +19°C° 0 mm 6 m/s 757 mmHg 42%
    12:00 +19°C° 0 mm 6 m/s 756 mmHg 41%
    13:00 +20°C° 0 mm 6 m/s 756 mmHg 39%
    14:00 +20°C° 0 mm 5 m/s 756 mmHg 38%
    15:00 +20°C° 0 mm 5 m/s 755 mmHg 40%
    16:00 +20°C° 0 mm 5 m/s 755 mmHg 41%
    17:00 +20°C° 0 mm 4 m/s 755 mmHg 43%
    18:00 +18°C° 0 mm 4 m/s 754 mmHg 49%
    19:00 +16°C° 0 mm 3 m/s 754 mmHg 55%
    20:00 +13°C° 0 mm 3 m/s 754 mmHg 61%
    21:00 +12°C° 0 mm 3 m/s 754 mmHg 63%
    22:00 +12°C° 0 mm 3 m/s 754 mmHg 65%
    23:00 +11°C° 0 mm 3 m/s 754 mmHg 67%
    Mostrar mais